Flag for Isle of Man Weather past 2 weeks in Ramsey, Isle of Man

Now
54 °F

Broken clouds.


Feels Like: 49 °F
Forecast: 54 / 58 °F
Wind: 16 mph from West

Location: Isle Of Man / Ronaldsway Airport

Current Time: Oct 24, 2014 at 3:55:57 PM

Latest Report: Oct 24, 2014 at 3:20 PM


Visibility: N/A

Pressure: 29.80 "Hg

Humidity: 67%

Dew point: 43 °F

Location of RamseyLocation

Historic Weather in Ramsey — Graph

°F

Ramsey temperature yesterday

Maximum temperature yesterday: 59 °F (at 10:50 AM)
Minimum temperature yesterday: 55 °F (at 12:50 AM)
Average temperature yesterday: 58 °F

Past Weeks' High & Low Weather Summary

 TemperatureHumidityPressure
High63 °F (Oct 18, 11:50 AM)100% (Oct 10, 7:50 AM)30.21 "Hg (Oct 10, 7:50 AM)
Low43 °F (Oct 11, 6:50 AM)54% (Oct 21, 4:50 PM)29.24 "Hg (Oct 9, 2:20 PM)
Average55 °F82%29.72 "Hg
* Reported Oct 9 2:20 PM — Oct 24 2:50 PM, Ramsey, Weather by CustomWeather, © 2014

Note: Actual official high and low records may vary slightly from our data, if they occured in-between our weather recording intervals... More about our weather records

Advertising

Ramsey weather history for previous 24 hours

 ConditionsComfort  
Time TempWeatherWind HumidityBarometerVisibility
2:50 PM
Oct 24
54 °FScattered clouds.18 mph67%29.83 "HgN/A
2:20 PM54 °FLight rain. Passing clouds.18 mph67%29.83 "HgN/A
1:50 PM54 °FPassing clouds.17 mph67%29.83 "HgN/A
1:20 PM54 °FPassing clouds.18 mph67%29.83 "HgN/A
12:50 PM54 °FPassing clouds.18 mph63%29.83 "HgN/A
12:20 PM54 °FPassing clouds.18 mph72%29.83 "HgN/A
11:50 AM54 °FPassing clouds.16 mph67%29.83 "HgN/A
11:20 AM52 °FPassing clouds.14 mph77%29.83 "HgN/A
10:50 AM50 °FPassing clouds.12 mph88%29.86 "HgN/A
10:20 AM50 °FSprinkles. Broken clouds.14 mph94%29.86 "Hg5 mi
9:50 AM54 °FPassing clouds.10 mph72%29.83 "HgN/A
9:20 AM54 °FPassing clouds.13 mph72%29.83 "HgN/A
8:50 AM54 °FPassing clouds.10 mph77%29.83 "HgN/A
8:20 AM54 °FPassing clouds.13 mph77%29.83 "HgN/A
7:50 AM52 °FPassing clouds.9 mph82%29.83 "HgN/A
7:20 AM52 °FPassing clouds.13 mph77%29.83 "HgN/A
6:50 AM54 °FPassing clouds.14 mph72%29.83 "HgN/A
6:20 AM52 °FPassing clouds.10 mph82%29.83 "HgN/A
5:50 AM52 °FPassing clouds.13 mph82%29.83 "HgN/A
5:20 AM54 °FPassing clouds.14 mph82%29.83 "HgN/A
4:50 AM54 °FPassing clouds.14 mph82%29.83 "HgN/A
3:50 AM54 °FSprinkles. Passing clouds.10 mph82%29.83 "HgN/A
2:50 AM54 °FPassing clouds.12 mph77%29.83 "HgN/A
1:50 AM54 °FPassing clouds.12 mph88%29.83 "HgN/A
12:50 AM54 °FPassing clouds.12 mph82%29.83 "HgN/A
11:50 PM
Oct 23
55 °FMostly cloudy.12 mph88%29.83 "HgN/A
10:50 PM57 °FRain. Mostly cloudy.17 mph88%29.80 "Hg4 mi
9:50 PM59 °FLight rain. Passing clouds.17 mph88%29.83 "Hg5 mi
8:50 PM59 °FPassing clouds.18 mph88%29.80 "HgN/A
8:20 PM59 °FPassing clouds.17 mph88%29.80 "HgN/A
7:50 PM59 °FPassing clouds.16 mph88%29.80 "HgN/A
7:20 PM59 °FPassing clouds.16 mph94%29.80 "HgN/A
6:50 PM59 °FPartly sunny.20 mph88%29.80 "HgN/A
6:20 PM59 °FPartly sunny.17 mph88%29.80 "HgN/A
5:50 PM59 °FPartly sunny.13 mph88%29.80 "HgN/A
5:20 PM59 °FPartly sunny.14 mph88%29.80 "HgN/A
4:50 PM59 °FPartly sunny.18 mph82%29.83 "HgN/A
4:20 PM59 °FPartly sunny.15 mph88%29.83 "HgN/A
3:50 PM59 °FPartly sunny.16 mph88%29.83 "HgN/A
3:20 PM59 °FPartly sunny.16 mph88%29.83 "HgN/A
Weather by CustomWeather, © 2014

See weather overviewHow to use our weather pages